TimeCST,TemperatureF,Dew PointF,Humidity,Sea Level PressureIn,VisibilityMPH,Wind Direction,Wind SpeedMPH,Gust SpeedMPH,PrecipitationIn,Events,Conditions,WindDirDegrees,DateUTC
12:15 AM,27.9,23.4,83,30.34,10.0,ENE,3.5,-,N/A,,Clear,70,2012-12-13 06:15:00
12:35 AM,27.7,23.0,83,30.34,10.0,Calm,Calm,-,N/A,,Clear,0,2012-12-13 06:35:00
12:55 AM,26.4,22.6,86,30.34,10.0,East,4.6,-,N/A,,Clear,90,2012-12-13 06:55:00
1:15 AM,26.2,23.5,90,30.33,10.0,ENE,3.5,-,N/A,,Clear,60,2012-12-13 07:15:00
1:35 AM,27.9,23.9,85,30.34,10.0,Calm,Calm,-,N/A,,Clear,0,2012-12-13 07:35:00
1:55 AM,27.3,23.2,84,30.34,10.0,Calm,Calm,-,N/A,,Clear,0,2012-12-13 07:55:00
2:15 AM,26.4,22.6,86,30.36,10.0,Calm,Calm,-,N/A,,Clear,0,2012-12-13 08:15:00
2:35 AM,25.9,22.3,86,30.35,10.0,Calm,Calm,-,N/A,,Clear,0,2012-12-13 08:35:00
2:55 AM,24.8,22.5,91,30.36,10.0,Calm,Calm,-,N/A,,Clear,0,2012-12-13 08:55:00
3:15 AM,25.9,23.5,91,30.36,10.0,Calm,Calm,-,N/A,,Clear,0,2012-12-13 09:15:00
3:35 AM,25.3,22.3,88,30.36,10.0,Calm,Calm,-,N/A,,Clear,0,2012-12-13 09:35:00
3:55 AM,24.3,23.0,95,30.36,10.0,Calm,Calm,-,N/A,,Clear,0,2012-12-13 09:55:00
4:15 AM,23.9,23.9,100,30.36,10.0,Calm,Calm,-,N/A,,Clear,0,2012-12-13 10:15:00
4:35 AM,-9999,-9999,N/A,30.37,10.0,Calm,Calm,-,N/A,,Clear,0,2012-12-13 10:35:00
4:55 AM,23.9,23.7,99,30.37,10.0,Calm,Calm,-,N/A,,Clear,0,2012-12-13 10:55:00
5:15 AM,-9999,-9999,N/A,30.37,10.0,Calm,Calm,-,N/A,,Clear,0,2012-12-13 11:15:00
5:35 AM,24.4,24.4,100,30.38,10.0,Calm,Calm,-,N/A,,Clear,0,2012-12-13 11:35:00
5:55 AM,24.1,24.1,100,30.39,10.0,Calm,Calm,-,N/A,,Clear,0,2012-12-13 11:55:00
6:15 AM,24.1,24.1,100,30.39,10.0,Calm,Calm,-,N/A,,Clear,0,2012-12-13 12:15:00
6:35 AM,23.7,23.7,100,30.39,7.0,Calm,Calm,-,N/A,,Clear,0,2012-12-13 12:35:00
6:55 AM,23.2,23.2,100,30.39,7.0,Calm,Calm,-,N/A,,Clear,0,2012-12-13 12:55:00
7:15 AM,-9999,-9999,N/A,30.39,7.0,East,3.5,-,N/A,,Clear,90,2012-12-13 13:15:00
7:35 AM,25.5,25.5,100,30.39,7.0,East,3.5,-,N/A,,Clear,80,2012-12-13 13:35:00
7:55 AM,28.2,26.1,92,30.39,10.0,Calm,Calm,-,N/A,,Clear,0,2012-12-13 13:55:00
8:15 AM,30.4,26.4,85,30.39,10.0,East,4.6,-,N/A,,Clear,100,2012-12-13 14:15:00
8:35 AM,31.8,27.0,82,30.40,10.0,East,3.5,-,N/A,,Clear,100,2012-12-13 14:35:00
8:55 AM,33.1,27.3,79,30.40,10.0,East,4.6,-,N/A,,Clear,80,2012-12-13 14:55:00
9:15 AM,35.1,27.9,75,30.40,10.0,East,3.5,-,N/A,,Clear,80,2012-12-13 15:15:00
9:35 AM,37.0,28.2,70,30.41,10.0,Calm,Calm,-,N/A,,Clear,0,2012-12-13 15:35:00
9:55 AM,38.7,28.4,67,30.41,10.0,East,3.5,-,N/A,,Clear,100,2012-12-13 15:55:00
10:15 AM,39.9,29.3,66,30.41,10.0,Calm,Calm,-,N/A,,Clear,0,2012-12-13 16:15:00
10:35 AM,41.4,30.2,65,30.40,10.0,Calm,Calm,-,N/A,,Clear,0,2012-12-13 16:35:00
10:55 AM,42.6,31.1,64,30.39,10.0,North,3.5,-,N/A,,Clear,360,2012-12-13 16:55:00
11:15 AM,43.9,31.6,62,30.38,10.0,Calm,Calm,-,N/A,,Clear,0,2012-12-13 17:15:00
11:35 AM,45.5,31.6,58,30.37,10.0,East,3.5,-,N/A,,Clear,90,2012-12-13 17:35:00
11:55 AM,46.0,31.3,56,30.37,10.0,Calm,Calm,-,N/A,,Clear,0,2012-12-13 17:55:00
12:15 PM,47.1,29.5,50,30.36,10.0,Calm,Calm,-,N/A,,Clear,0,2012-12-13 18:15:00
12:35 PM,48.2,29.1,48,30.35,10.0,Calm,Calm,-,N/A,,Clear,0,2012-12-13 18:35:00
12:55 PM,48.9,29.3,47,30.34,10.0,Calm,Calm,-,N/A,,Clear,0,2012-12-13 18:55:00
1:15 PM,49.6,26.6,41,30.33,10.0,Calm,Calm,-,N/A,,Clear,0,2012-12-13 19:15:00
1:35 PM,50.0,26.2,40,30.33,10.0,Calm,Calm,-,N/A,,Clear,0,2012-12-13 19:35:00
1:55 PM,50.5,25.0,37,30.32,10.0,Calm,Calm,-,N/A,,Clear,0,2012-12-13 19:55:00
2:15 PM,50.7,25.2,37,30.32,10.0,Calm,Calm,-,N/A,,Clear,0,2012-12-13 20:15:00
2:35 PM,51.3,25.9,37,30.32,10.0,WSW,4.6,-,N/A,,Clear,250,2012-12-13 20:35:00
2:55 PM,51.3,26.4,38,30.31,10.0,WSW,3.5,-,N/A,,Clear,240,2012-12-13 20:55:00
3:55 PM,49.5,25.2,39,30.30,10.0,Calm,Calm,-,N/A,,Clear,0,2012-12-13 21:55:00
4:15 PM,47.7,25.3,42,30.30,10.0,Calm,Calm,-,N/A,,Clear,0,2012-12-13 22:15:00
4:35 PM,45.9,25.2,44,30.30,10.0,Calm,Calm,-,N/A,,Clear,0,2012-12-13 22:35:00
7:15 PM,33.1,26.2,76,30.30,10.0,Calm,Calm,-,N/A,,Clear,0,2012-12-14 01:15:00
7:35 PM,32.2,26.8,80,30.30,10.0,Calm,Calm,-,N/A,,Clear,0,2012-12-14 01:35:00
7:55 PM,32.0,27.0,82,30.31,10.0,Calm,Calm,-,N/A,,Clear,0,2012-12-14 01:55:00
8:15 PM,31.6,27.3,84,30.31,10.0,Calm,Calm,-,N/A,,Clear,0,2012-12-14 02:15:00
8:35 PM,30.4,27.3,88,30.30,10.0,Calm,Calm,-,N/A,,Clear,0,2012-12-14 02:35:00
8:55 PM,30.0,27.9,92,30.30,10.0,Calm,Calm,-,N/A,,Clear,0,2012-12-14 02:55:00
9:15 PM,29.7,28.2,94,30.30,10.0,Calm,Calm,-,N/A,,Clear,0,2012-12-14 03:15:00
9:35 PM,29.1,29.1,100,30.31,10.0,Calm,Calm,-,N/A,,Clear,0,2012-12-14 03:35:00
9:55 PM,29.5,29.5,100,30.30,10.0,Calm,Calm,-,N/A,,Clear,0,2012-12-14 03:55:00
10:15 PM,-9999,-9999,N/A,30.30,10.0,Calm,Calm,-,N/A,,Clear,0,2012-12-14 04:15:00
10:35 PM,-9999,-9999,N/A,30.31,10.0,Calm,Calm,-,N/A,,Clear,0,2012-12-14 04:35:00
10:55 PM,-9999,-9999,N/A,30.30,10.0,Calm,Calm,-,N/A,,Clear,0,2012-12-14 04:55:00
11:15 PM,-9999,-9999,N/A,30.30,10.0,Calm,Calm,-,N/A,,Clear,0,2012-12-14 05:15:00
11:35 PM,-9999,-9999,N/A,30.31,10.0,Calm,Calm,-,N/A,,Clear,0,2012-12-14 05:35:00
11:55 PM,-9999,-9999,N/A,30.31,10.0,Calm,Calm,-,N/A,,Clear,0,2012-12-14 05:55:00